[[{"header":{"parameterUnit":"m.s-1","parameterCategory":1,"la1":30.2991,"la2":30.254,"lo1":-89.0895,"lo2":-89.0444,"dy":0.0017,"dx":0.0017,"nx":28,"ny":28,"refTime":"2025-05-19T21:00:00:Z","depth":0,"parameterNumber":2,"parameterNumberName":"U-component_of_WINDS"},"data":[0,0,0,0,0,0,0,0,0,0,0,0,0,0,0,0,0,0,0,0,0,0,0,0,0,0,0,0,0,0,0,0,0,0,0,0,0,0,0,0,0,0,0,0,0,0,0,0,0,0,0,0,0,0,0,0,0,0,2.691,2.6911,0,2.7,2.7001,2.7002,2.697,2.6968,2.6966,2.6965,2.7057,2.7061,2.7065,0,0,0,0,0,0,0,0,0,0,0,0,0,2.6709,2.6713,2.691,2.6911,2.6913,2.7,2.7001,2.7003,2.6971,2.6968,2.6966,2.6964,2.7055,2.7061,2.7066,0,0,0,0,0,0,0,0,0,0,0,0,0,2.6798,2.6715,2.691,2.6907,2.6908,2.7,2.7001,2.7003,2.6971,2.6968,2.6965,2.6963,2.7054,2.706,2.7067,2.7167,0,0,2.7086,2.7089,0,0,0,0,0,0,0,0,2.6793,2.6805,2.6907,2.6908,2.6908,2.6971,2.6964,2.7058,2.6972,2.6947,2.6965,2.6961,2.7031,2.7039,2.7062,2.7171,2.7175,2.7087,2.7091,2.7094,2.7095,0,0,0,0,0,0,0,2.6787,2.6801,2.6946,2.6908,2.6909,2.6901,2.691,2.6982,2.7005,2.6949,2.6947,2.6958,2.7031,2.7056,2.7064,2.7176,2.7087,2.7093,2.7097,2.7099,2.7369,2.7372,0,0,0,0,0,0,2.678,2.6796,2.6943,2.6949,2.6842,2.6907,2.6917,2.6954,2.7004,2.7009,2.6961,2.6956,2.7047,2.7057,2.7068,2.7186,2.7094,2.71,2.7103,2.7366,2.737,2.7374,0,0,0,0,0,0,2.6776,2.6794,2.6939,2.6872,2.689,2.6914,2.6955,2.6957,2.6983,2.7013,2.7016,2.6983,2.7045,2.7058,2.7142,2.7189,2.7103,2.7109,2.7362,2.7367,2.7372,2.7426,0,0,0,0,0,0,2.677,2.6792,2.6831,2.6873,2.6894,2.7013,2.6958,2.6961,2.6994,2.6989,2.7034,2.7039,2.7043,2.7132,2.7148,2.7197,2.7114,2.7358,2.7364,2.737,2.742,2.7433,2.7443,0,0,0,0,0,2.6763,2.6844,2.6833,2.6851,2.6943,2.7016,2.7027,2.7031,2.6998,2.7037,2.7056,2.7037,2.7182,2.7141,2.7159,2.721,2.7355,2.7363,2.737,2.7415,2.743,2.7443,0,0,0,0,0,0,2.6807,2.6849,2.6838,2.6934,2.6972,2.701,2.7059,2.7047,2.7094,2.7088,2.709,2.7101,2.7186,2.7206,2.7161,2.7308,2.7263,2.7275,2.7292,2.7306,2.7317,2.731,2.7119,0,0,0,0,0,2.6828,2.6884,2.6917,2.6999,2.7018,2.7036,2.7068,2.7067,2.7106,2.7121,2.7146,2.7184,2.7238,2.7273,2.7325,2.7423,2.7431,2.7467,2.7478,2.7487,2.7497,2.7548,2.7564,2.7398,2.7398,2.7398,0,0,2.6872,2.6901,2.6937,2.7009,2.7037,2.7094,2.7049,2.7112,2.7154,2.7131,2.7211,2.723,2.7273,2.7364,2.7405,2.7383,2.7544,2.7497,2.7504,2.7508,2.7557,2.7573,2.7587,2.7403,2.7402,2.7401,0,0,2.698,2.7009,2.7079,2.7108,2.7152,2.7163,2.718,2.722,2.7232,2.7312,2.7295,2.7345,2.7438,2.7468,2.7496,2.7614,2.7598,2.763,2.7689,2.7739,2.7752,2.7764,2.7804,2.7819,2.764,2.764,2.764,0,2.7029,2.7115,2.7117,2.7181,2.7212,2.7193,2.7263,2.7291,2.735,2.7372,2.7346,2.7461,2.7489,2.7585,2.7614,2.7637,2.7655,2.7625,2.775,2.7762,2.7772,2.7811,2.7826,2.7643,2.7643,2.7643,2.7642,0,2.7171,2.7231,2.7282,2.7338,2.7375,2.7442,2.7454,2.7491,2.7487,2.75,2.758,2.7612,2.7669,2.7692,2.7689,2.7788,2.7772,2.7749,2.7703,2.7792,2.7828,2.7843,2.7648,2.7647,2.7646,2.7645,0,0,2.7311,2.7366,2.7384,2.7409,2.7455,2.7501,2.7566,2.7621,2.7652,2.7692,2.7746,2.7824,2.7802,2.7833,2.7833,2.7878,2.7966,2.7848,2.7849,2.7868,2.8075,2.8091,2.8109,2.7956,2.7959,2.7961,2.8071,0,2.7422,2.7536,2.7539,2.7644,2.7698,2.7679,2.7736,2.777,2.7783,2.7831,2.7846,2.79,2.7868,2.7886,2.7929,2.7946,2.8008,2.7939,2.8005,2.8008,2.7994,2.8128,2.8146,2.8248,2.8085,2.8087,2.8089,0,2.7567,2.7611,2.772,2.7757,2.778,2.7831,2.788,2.7926,2.7963,2.797,2.8004,2.7997,2.8062,2.8015,2.8104,2.8057,2.8084,2.8097,2.8101,2.8106,2.8053,2.8136,2.8281,2.8295,2.8112,2.811,2.8108,0,2.7655,2.7742,2.7818,2.784,2.7885,2.7921,2.7941,2.7975,2.8007,2.805,2.8071,2.8121,2.8148,2.8187,2.8193,2.8158,2.8282,2.8236,2.8288,2.8288,2.8314,2.8313,2.8464,2.8334,2.8334,2.8334,2.8333,0,2.7778,2.7845,2.7858,2.7905,2.798,2.7982,2.8055,2.8073,2.8103,2.8153,2.814,2.8187,2.8192,2.824,2.8245,2.8317,2.833,2.8336,2.8337,2.8337,2.8336,2.8354,2.8347,2.8338,2.8337,2.8336,2.8335,0,2.7889,2.7901,2.7982,2.8018,2.8028,2.8081,2.8111,2.8155,2.8167,2.8229,2.8244,2.8262,2.8318,2.8327,2.8393,2.8396,2.8482,2.8476,2.8469,2.8468,2.8519,2.8513,2.8687,2.8709,2.8566,2.8567,2.8568,0,2.7966,2.8017,2.8058,2.809,2.8111,2.8163,2.8195,2.8199,2.8233,2.8279,2.8317,2.8371,2.8414,2.8503,2.8521,2.8571,2.8565,2.8622,2.8572,2.857,2.8564,2.856,2.8564,2.8631,2.8633,2.8634,2.8635,0,2.8101,2.8104,2.8151,2.8199,2.8238,2.8277,2.8313,2.834,2.8348,2.8387,2.8443,2.8476,2.8542,2.8595,2.8643,2.8663,2.8651,2.8651,2.8665,2.8665,2.8659,2.8661,2.8493,2.8647,2.8646,2.8645,2.8644,2.8644,2.8197,2.824,2.8275,2.8327,2.8355,2.8389,2.8431,2.8448,2.8495,2.8548,2.8548,2.8609,2.8643,2.8707,2.873,2.8777,2.8759,2.878,2.8785,2.879,2.8794,2.8652,2.8786,2.8786,2.8785,2.8785,2.8785,0,2.8329,2.835,2.8398,2.8449,2.849,2.8474,2.8513,2.8548,2.8601,2.8635,2.8677,2.874,2.8791,2.8813,2.8863,2.8896,2.8891,2.8909,2.8906,2.891,2.8809,2.879,2.8912,2.8912,2.8912,2.8912,2.8912,2.8912,2.8403,2.8476,2.8482,2.8568,2.8589,2.8648,2.8671,2.8702,2.8728,2.8799,2.8841,2.8855,2.8884,2.8935,2.898,2.8985,2.9004,2.9024,2.9026,2.8931,2.8918,2.8905,2.8888,2.9028,2.9028,2.9124,2.9124,2.9125]},{"header":{"parameterUnit":"m.s-1","parameterCategory":1,"la1":30.2991,"la2":30.254,"lo1":-89.0895,"lo2":-89.0444,"dy":0.0017,"dx":0.0017,"nx":28,"ny":28,"refTime":"2025-05-19T21:00:00:Z","depth":0,"parameterNumber":3,"parameterNumberName":"V-component_of_WINDS"},"data":[0,0,0,0,0,0,0,0,0,0,0,0,0,0,0,0,0,0,0,0,0,0,0,0,0,0,0,0,0,0,0,0,0,0,0,0,0,0,0,0,0,0,0,0,0,0,0,0,0,0,0,0,0,0,0,0,0,0,6.5085,6.5086,0,6.5252,6.5254,6.5256,6.5245,6.5242,6.524,6.5238,6.54,6.5406,6.5413,0,0,0,0,0,0,0,0,0,0,0,0,0,6.4743,6.4749,6.5084,6.5086,6.5089,6.5252,6.5254,6.5257,6.5245,6.5242,6.5239,6.5237,6.5398,6.5405,6.5413,0,0,0,0,0,0,0,0,0,0,0,0,0,6.4899,6.4751,6.5084,6.5103,6.5106,6.5252,6.5255,6.5257,6.5246,6.5242,6.5239,6.5235,6.5395,6.5405,6.5414,6.5549,0,0,6.5445,6.5449,0,0,0,0,0,0,0,0,6.489,6.4911,6.5098,6.5102,6.5106,6.5224,6.5193,6.5355,6.5247,6.5193,6.5238,6.5233,6.5344,6.5358,6.5397,6.5557,6.5564,6.5446,6.5452,6.5456,6.5459,0,0,0,0,0,0,0,6.4879,6.4904,6.515,6.5101,6.5106,6.5099,6.5117,6.5224,6.5286,6.5197,6.5197,6.5217,6.5345,6.5387,6.5401,6.5566,6.5445,6.5454,6.546,6.5464,6.5842,6.5846,0,0,0,0,0,0,6.4866,6.4895,6.5145,6.5156,6.4987,6.5108,6.5129,6.519,6.5285,6.5296,6.522,6.5216,6.5372,6.5389,6.5406,6.5569,6.5456,6.5465,6.5471,6.5838,6.5843,6.5847,0,0,0,0,0,0,6.4858,6.4888,6.5138,6.5025,6.5057,6.5118,6.5187,6.5195,6.5237,6.5303,6.5313,6.5253,6.537,6.5392,6.5514,6.5575,6.5469,6.5478,6.5833,6.5839,6.5845,6.5897,0,0,0,0,0,0,6.4849,6.4886,6.494,6.5027,6.5063,6.5247,6.5191,6.5201,6.5256,6.5252,6.5336,6.5346,6.5369,6.5499,6.5524,6.5586,6.5486,6.5828,6.5836,6.5843,6.589,6.5904,6.5916,0,0,0,0,0,6.4836,6.4946,6.4943,6.4973,6.5133,6.525,6.5271,6.5297,6.5261,6.5314,6.5356,6.5344,6.5564,6.5512,6.5539,6.5606,6.5824,6.5834,6.5842,6.5884,6.5901,6.5916,0,0,0,0,0,0,6.4862,6.4958,6.4955,6.5097,6.5166,6.5248,6.5317,6.5315,6.5393,6.5386,6.5412,6.5431,6.5553,6.5591,6.5531,6.574,6.5689,6.5704,6.5711,6.5728,6.574,6.5728,6.5494,0,0,0,0,0,6.4884,6.4975,6.5053,6.517,6.5205,6.5255,6.5307,6.5322,6.5393,6.5421,6.5472,6.5538,6.5622,6.5677,6.5758,6.5895,6.5912,6.5954,6.5967,6.5977,6.599,6.6063,6.6083,6.5878,6.5877,6.5877,0,0,6.4931,6.4995,6.505,6.5177,6.5232,6.5322,6.528,6.5377,6.5443,6.5435,6.5554,6.5593,6.5668,6.5798,6.5857,6.5833,6.605,6.5989,6.5997,6.6004,6.6075,6.6094,6.6111,6.5884,6.5883,6.5882,0,0,6.5062,6.512,6.5224,6.5281,6.5366,6.5398,6.5423,6.5506,6.5533,6.5653,6.5648,6.5724,6.5869,6.5923,6.597,6.6119,6.611,6.6145,6.6213,6.6284,6.63,6.6314,6.6367,6.6385,6.6157,6.6157,6.6157,0,6.5108,6.5248,6.5277,6.5376,6.5431,6.543,6.5533,6.5585,6.5691,6.5727,6.5699,6.588,6.5931,6.6073,6.6109,6.6147,6.6174,6.6135,6.6296,6.6311,6.6325,6.6375,6.6394,6.6161,6.616,6.616,6.616,0,6.53,6.5396,6.5469,6.5575,6.5637,6.5738,6.5779,6.5838,6.5846,6.588,6.6001,6.6062,6.6155,6.6189,6.6197,6.6331,6.6314,6.6291,6.624,6.6347,6.6395,6.6414,6.6166,6.6165,6.6164,6.6163,0,0,6.5453,6.5573,6.56,6.5647,6.574,6.5813,6.5911,6.6005,6.6055,6.6127,6.6208,6.633,6.631,6.6362,6.6376,6.6438,6.6551,6.6407,6.6409,6.6431,6.6701,6.6718,6.674,6.6546,6.655,6.6553,6.6694,0,6.5593,6.5773,6.5801,6.5957,6.6044,6.6044,6.6129,6.6193,6.6227,6.6304,6.6339,6.6425,6.6392,6.6423,6.6486,6.6525,6.6606,6.6515,6.6619,6.6623,6.6601,6.6765,6.6783,6.6914,6.6713,6.6716,6.6719,0,6.5781,6.5862,6.6028,6.6108,6.6146,6.6223,6.631,6.6384,6.6455,6.6475,6.6534,6.6539,6.6638,6.6582,6.6717,6.6654,6.6698,6.6723,6.6729,6.6739,6.6677,6.6779,6.6956,6.6976,6.6748,6.6746,6.6744,0,6.5875,6.6024,6.6143,6.6183,6.628,6.6334,6.6376,6.6444,6.6498,6.6573,6.6607,6.6691,6.6737,6.68,6.6827,6.6785,6.6959,6.6907,6.6976,6.6975,6.7013,6.701,6.72,6.7042,6.7041,6.7041,6.7041,0,6.6029,6.613,6.6187,6.6259,6.6371,6.6401,6.651,6.6549,6.661,6.6687,6.669,6.6762,6.6794,6.6869,6.689,6.6997,6.7017,6.7034,6.7038,6.7034,6.7032,6.7063,6.7054,6.7046,6.7045,6.7044,6.7043,0,6.6154,6.6196,6.6325,6.6406,6.6429,6.6507,6.6575,6.6644,6.6676,6.6774,6.6799,6.6849,6.6938,6.6972,6.7079,6.7093,6.7217,6.7214,6.7194,6.7195,6.7262,6.7255,6.7478,6.7508,6.7331,6.7332,6.7334,0,6.6249,6.6328,6.6418,6.6472,6.6517,6.6603,6.6659,6.6689,6.6747,6.6833,6.689,6.698,6.7054,6.7195,6.7239,6.7321,6.7319,6.7391,6.7331,6.7324,6.7319,6.7314,6.7321,6.7402,6.7404,6.7406,6.7407,0,6.6414,6.6431,6.6513,6.6603,6.667,6.6741,6.681,6.6853,6.6893,6.6956,6.705,6.7107,6.7218,6.7305,6.7389,6.7428,6.7423,6.7426,6.7446,6.7442,6.7427,6.7436,6.7224,6.742,6.7419,6.7418,6.7417,6.7417,6.6527,6.6596,6.667,6.6761,6.6817,6.6881,6.6949,6.6991,6.7071,6.7166,6.7177,6.7277,6.7343,6.7456,6.7498,6.7574,6.7554,6.7583,6.7591,6.7597,6.7602,6.7416,6.7589,6.7588,6.7588,6.7588,6.7587,0,6.6691,6.6739,6.6823,6.692,6.6991,6.6984,6.7059,6.7117,6.7206,6.727,6.7343,6.7448,6.7533,6.7583,6.7668,6.7718,6.7718,6.7739,6.7735,6.7744,6.7615,6.7589,6.7738,6.7738,6.7738,6.7738,6.7737,6.7737,6.6785,6.6901,6.6927,6.7069,6.7115,6.7215,6.7259,6.7316,6.7368,6.7487,6.7558,6.7592,6.7649,6.7738,6.7814,6.7826,6.7856,6.7879,6.789,6.7769,6.7753,6.7738,6.7714,6.7886,6.7886,6.8012,6.8013,6.8014]}]]